ECMWFNIL_850_thetae_045.txt.gz
Theta_e
270 270 271 271 271 271 271 271 271 271 271 271 271 271 271 271 271 271 271 271 271 271 272 272 272 272 273 273 274 274 275 275 276 277 278 278 279 279 279 279 280 280
270 270 270 270 270 270 270 271 271 271 271 271 271 271 271 271 271 271 271 271 271 271 271 271 271 272 272 273 273 274 274 275 275 276 277 277 278 278 278 279 279 279
270 270 270 270 270 270 270 270 270 270 270 270 270 270 270 270 270 270 270 270 270 270 270 271 271 271 272 272 272 273 274 274 275 276 276 277 277 277 278 278 278 278
269 270 270 270 270 270 270 270 270 270 270 270 270 270 270 270 270 270 270 270 270 270 270 270 270 271 271 271 271 272 272 273 274 274 275 276 276 276 277 277 278 278
269 269 269 269 269 269 269 269 270 270 270 270 270 270 270 270 270 270 270 270 270 270 270 270 270 270 270 270 271 271 271 272 273 273 274 275 275 276 276 277 277 278
269 269 269 269 269 269 269 269 269 269 269 269 269 269 269 269 269 270 270 270 270 270 270 270 270 270 270 270 270 270 271 271 272 273 273 274 274 275 276 276 277 277
268 269 269 269 269 269 269 269 269 269 269 269 269 269 269 269 269 269 269 270 270 270 270 270 270 270 270 270 270 270 270 271 271 272 273 273 274 274 275 275 276 276
268 268 268 269 268 268 269 269 269 269 269 269 269 269 269 269 269 269 269 270 270 270 270 270 270 270 270 270 270 270 271 271 271 272 272 273 273 274 274 275 275 276
268 268 268 268 268 268 269 269 269 269 269 269 269 269 269 269 269 269 269 269 270 270 270 270 270 270 270 270 270 270 270 271 271 272 272 273 273 273 274 274 274 275
268 268 268 268 268 268 269 268 268 268 269 269 269 269 269 269 269 269 269 270 270 270 270 270 270 270 270 270 270 270 270 271 271 272 272 272 273 273 274 274 274 275
268 268 268 268 268 268 269 269 269 269 269 269 269 269 269 269 269 269 269 269 270 270 270 270 270 270 270 270 270 270 270 271 271 271 271 272 273 273 274 274 275 276
268 268 268 268 268 269 269 269 269 270 269 270 270 270 270 270 270 269 269 269 270 270 270 270 270 270 270 270 270 270 271 271 271 271 271 271 272 273 273 274 275 276
267 268 268 268 269 270 271 270 270 271 271 271 271 271 271 271 271 271 270 270 270 270 270 270 270 270 270 270 270 270 271 271 271 271 271 271 272 272 272 273 274 275
267 267 268 268 270 271 271 271 272 272 272 272 272 272 272 272 272 272 272 272 272 272 272 271 271 271 271 271 271 271 271 271 271 271 271 271 271 272 272 272 273 274
267 267 268 269 270 271 272 273 273 273 273 273 273 273 273 274 274 274 274 274 274 273 273 273 272 272 272 272 272 272 272 272 272 272 272 272 272 272 272 272 273 273
267 267 268 270 271 271 272 273 274 274 274 275 275 275 275 275 275 275 275 275 275 275 275 275 275 275 275 275 274 273 273 273 273 273 273 273 272 272 272 272 272 273
267 268 269 270 271 272 273 273 274 275 275 275 276 276 276 276 276 277 277 277 277 277 277 277 277 277 277 277 276 275 274 273 273 274 274 274 274 274 273 273 273 274
267 268 269 270 271 272 273 274 274 275 276 276 276 277 277 277 277 278 278 278 278 278 278 279 279 279 279 278 278 277 275 274 274 274 275 275 275 275 275 274 274 275
268 269 269 270 271 272 273 274 275 275 276 276 277 277 277 277 278 278 278 279 279 279 279 279 279 280 280 280 279 278 277 276 276 276 276 277 277 277 277 277 276 276
268 269 270 271 271 272 273 274 275 276 276 276 277 277 277 278 278 278 278 279 279 279 279 279 279 279 280 280 280 280 279 278 278 278 278 278 279 279 279 279 278 278
269 269 270 271 272 272 273 274 275 275 276 276 277 277 277 278 278 278 278 279 279 279 279 279 279 279 280 280 280 280 280 279 279 280 280 280 281 281 281 281 280 280
269 269 270 271 272 272 273 274 275 275 276 276 277 277 277 277 278 278 278 278 279 279 279 279 279 280 280 280 280 280 280 280 280 280 281 281 281 282 282 282 281 281
269 270 271 271 271 272 273 274 274 275 275 276 276 277 277 277 277 278 278 278 279 279 279 280 280 280 281 280 280 280 280 280 280 281 281 281 282 282 283 283 282 282
270 270 270 271 271 272 272 273 274 275 275 276 276 277 277 277 277 277 278 278 279 280 280 280 281 281 281 281 281 280 280 280 280 281 281 281 282 282 283 283 283 282
270 270 270 271 271 272 273 274 274 274 275 276 276 276 276 276 277 277 278 279 280 280 281 281 280 280 280 280 281 280 280 280 280 281 281 281 282 282 283 282 283 283
270 270 270 271 272 272 273 274 274 274 275 276 276 276 275 275 276 277 278 279 280 281 281 281 280 280 280 281 281 281 281 281 281 281 281 281 282 282 282 282 283 283

ECMWFNIL_850_thetae_051.txt.gz
Theta_e
270 270 269 269 270 270 270 270 270 270 270 270 270 270 270 270 270 270 270 270 270 270 270 270 270 270 270 270 270 270 271 271 271 271 272 273 273 273 274 275 276 277
270 270 270 270 270 270 270 270 270 270 270 270 270 270 270 270 270 270 270 270 270 270 270 270 270 270 270 270 270 270 270 270 270 270 271 271 272 272 273 274 275 276
270 270 270 270 270 270 270 270 270 270 270 270 270 270 270 270 270 270 270 270 270 270 270 270 270 270 270 270 270 270 270 270 270 270 270 270 271 272 272 273 274 275
271 271 271 271 271 271 271 271 271 271 270 271 271 271 271 271 271 271 271 270 270 270 270 270 270 270 270 270 270 270 270 270 270 270 270 270 270 271 272 272 273 274
271 271 271 271 271 271 271 271 271 271 271 271 271 271 271 271 271 271 271 271 270 270 270 270 269 269 269 269 270 270 270 270 270 270 270 270 270 270 271 272 272 273
271 271 271 271 271 271 272 272 272 272 271 271 272 272 272 272 271 272 271 271 271 270 270 269 269 269 270 270 270 270 270 270 270 270 270 270 270 270 270 271 271 272
271 271 271 271 272 272 272 272 272 272 272 272 272 272 272 272 272 272 272 272 271 271 270 270 270 269 270 270 270 270 270 270 270 270 270 270 270 270 270 270 270 271
271 271 271 271 272 272 272 272 272 272 272 272 273 273 273 273 273 273 272 272 272 271 271 270 270 270 270 270 270 270 270 270 270 270 270 270 270 270 270 270 270 270
271 271 271 271 271 272 272 272 272 272 273 273 273 274 274 274 274 274 273 273 272 272 272 271 271 270 270 270 269 270 270 270 270 270 270 270 270 270 270 270 270 270
271 271 270 270 270 271 271 272 272 272 273 273 273 274 275 275 275 274 274 274 273 273 273 273 272 272 271 270 270 270 270 270 270 270 270 270 270 270 270 270 270 270
271 271 270 270 270 270 271 271 272 272 273 273 274 274 275 275 275 275 275 274 274 274 274 274 273 273 272 272 271 271 270 270 270 270 270 270 270 270 270 270 270 270
271 271 270 270 270 270 271 271 272 272 273 273 274 274 275 275 275 275 275 274 274 275 275 275 274 274 274 273 273 272 271 271 271 270 270 270 270 270 270 270 270 270
271 271 270 270 270 270 271 271 272 272 273 273 274 274 275 275 275 275 275 274 275 275 275 275 275 275 275 275 274 274 273 273 272 272 271 271 271 271 271 271 270 270
271 271 270 270 270 270 271 271 272 272 273 273 274 274 275 275 275 276 275 275 276 276 276 276 276 277 277 276 276 275 275 274 274 273 273 272 272 272 272 271 271 271
271 271 270 270 270 271 271 271 272 272 273 274 274 274 275 275 275 276 276 276 276 276 277 277 277 277 277 277 277 277 276 276 275 274 274 273 273 273 273 273 273 273
271 271 270 270 271 271 271 272 272 273 273 274 274 274 275 275 275 276 276 276 277 277 277 277 277 277 278 277 277 277 276 275 275 275 275 274 274 274 274 274 275 275
271 271 270 270 271 271 272 272 272 273 273 274 274 274 275 275 276 276 276 276 277 277 277 277 277 278 278 278 278 277 275 275 275 275 276 276 275 275 276 276 276 276
271 271 271 271 271 271 272 272 273 273 273 274 274 274 275 275 276 276 276 276 277 277 277 277 277 278 278 278 278 277 277 276 276 276 276 276 277 277 277 277 278 278
271 271 271 271 271 271 272 273 273 273 273 273 274 274 275 276 276 276 276 276 276 277 277 277 278 278 278 279 278 278 278 278 277 277 277 277 278 278 278 279 279 279
271 271 271 271 271 272 272 272 273 273 273 273 274 274 275 276 276 276 276 276 276 277 277 278 278 279 279 279 279 279 279 279 279 278 278 278 279 279 279 279 279 279
270 271 271 272 272 272 272 272 272 273 273 273 273 274 275 275 276 276 276 276 276 277 278 278 279 279 279 279 280 280 280 280 280 279 279 279 279 279 279 279 279 279
270 270 271 272 272 272 272 272 272 272 273 273 273 274 275 275 276 276 276 276 277 277 278 279 279 279 280 280 280 280 280 280 280 280 280 280 280 279 279 279 279 279
270 270 271 271 272 272 272 272 272 272 273 273 273 274 275 275 275 275 275 276 277 277 277 278 279 280 280 281 281 281 281 281 281 281 281 280 281 280 280 279 279 279
270 270 270 271 272 272 272 272 272 272 272 273 273 274 274 275 275 275 275 275 276 277 277 277 279 280 280 280 280 280 281 281 282 282 281 281 281 281 280 280 280 280
269 270 270 271 271 272 272 271 271 272 272 273 273 274 274 274 274 274 274 275 275 276 277 277 278 279 279 279 279 280 280 281 281 281 281 281 281 281 281 281 280 280
270 270 270 271 271 271 272 271 271 271 272 272 273 273 274 274 274 273 273 274 275 276 276 276 276 277 278 278 278 279 280 280 280 280 280 280 281 281 281 281 281 281

ECMWFNIL_850_thetae_054.txt.gz
Theta_e
274 274 274 274 274 273 273 273 272 273 273 273 273 273 274 274 274 274 274 274 273 273 273 272 272 272 271 271 271 270 270 270 270 270 270 270 270 271 271 272 272 272
275 275 275 275 274 274 274 273 273 273 273 273 273 273 273 273 273 273 273 273 273 273 273 272 272 272 271 271 271 270 270 270 270 270 270 270 270 270 271 271 271 271
275 275 275 275 275 275 275 274 274 273 273 273 273 273 273 273 273 273 273 273 273 273 273 273 272 272 272 271 271 270 270 270 270 270 270 270 270 270 270 270 270 271
275 275 275 275 275 275 275 275 274 274 274 274 273 273 273 273 273 273 273 273 273 274 274 273 273 273 272 272 271 270 270 270 270 269 269 270 270 270 270 270 270 270
275 275 275 275 275 275 275 275 275 275 274 274 273 273 273 273 273 273 273 274 274 274 274 274 274 274 273 272 271 270 270 270 270 269 269 269 269 270 270 270 270 270
275 275 275 275 275 275 275 275 275 275 274 274 273 273 273 273 273 273 273 274 274 274 274 274 274 274 273 272 271 271 270 270 270 270 269 269 269 269 269 270 270 270
275 275 275 275 275 275 275 275 275 275 274 274 274 273 273 273 273 273 273 274 274 274 275 275 275 274 274 273 272 272 271 270 270 270 270 270 270 270 270 270 270 270
275 275 275 275 275 275 275 275 275 274 274 274 274 274 273 273 273 273 273 274 274 275 275 275 275 275 274 274 273 273 272 271 271 270 270 270 270 270 270 270 270 270
275 275 275 274 274 274 274 274 274 274 274 274 274 274 274 273 273 273 274 274 274 275 275 275 275 275 275 275 274 273 273 272 272 271 270 270 270 270 270 270 270 270
275 275 274 274 274 274 274 274 274 274 274 274 274 274 274 274 274 274 274 274 274 275 275 275 275 275 275 275 275 275 274 273 273 272 271 271 270 270 270 270 270 270
275 274 274 274 274 274 274 274 274 274 274 273 274 274 274 274 274 274 274 274 274 275 275 274 274 275 275 276 276 275 275 275 274 273 272 272 271 271 271 271 270 270
274 274 274 274 274 274 273 273 273 273 273 273 273 274 274 275 275 274 274 274 274 275 274 274 275 275 276 276 276 276 276 276 275 274 273 273 272 272 272 272 272 272
274 274 274 274 274 273 273 273 273 273 273 273 273 273 274 274 274 274 274 274 275 275 275 275 275 276 276 276 277 277 277 276 276 275 274 274 274 274 273 273 273 273
273 273 273 274 273 273 273 273 273 273 273 273 273 274 274 274 274 274 275 275 275 275 275 276 276 276 276 277 277 277 277 276 276 276 275 274 274 274 274 274 274 274
273 273 273 273 273 273 273 273 273 272 273 273 273 273 274 274 274 274 275 275 275 275 276 276 277 277 277 277 277 277 277 276 276 276 275 275 275 275 275 276 276 276
272 273 273 273 273 273 273 272 272 272 273 273 273 273 273 274 274 274 275 275 275 276 276 277 277 277 277 277 277 277 276 276 276 276 276 276 276 276 276 277 277 277
272 272 272 272 272 272 272 272 272 272 272 273 273 273 273 273 274 274 274 275 275 276 276 277 277 277 277 277 277 277 276 275 275 275 276 276 277 277 277 277 277 277
272 272 272 272 272 272 272 272 272 272 272 273 273 273 273 274 274 274 274 275 276 276 277 277 277 277 277 277 277 278 277 276 275 276 276 277 277 277 278 278 278 278
272 272 272 272 272 272 272 272 272 273 273 273 273 273 273 273 274 274 275 275 276 276 277 277 277 277 277 278 277 278 278 277 277 277 278 278 278 278 278 278 278 278
272 272 272 272 272 272 272 272 273 273 273 273 273 273 273 273 274 274 274 275 275 276 277 277 277 278 278 278 278 278 279 279 278 279 279 279 279 279 279 279 279 279
272 272 272 272 272 272 272 272 273 273 273 273 273 273 273 273 274 274 274 275 275 276 276 277 278 278 278 279 279 279 279 279 279 280 280 280 280 279 279 279 280 280
272 272 272 272 272 272 272 272 273 273 273 273 273 273 273 273 274 274 274 275 275 275 276 277 278 278 278 279 279 279 279 279 280 280 281 281 280 280 280 280 280 280
272 272 272 272 272 272 272 272 272 273 273 273 272 273 273 273 274 274 275 275 275 275 276 277 278 278 278 279 279 279 279 279 279 280 280 281 281 281 281 281 281 281
272 272 272 272 272 272 272 272 272 273 273 272 272 272 273 273 274 274 275 275 275 275 275 276 277 278 278 278 278 278 278 279 279 279 279 280 280 280 280 280 281 281
272 272 272 272 272 272 272 272 272 273 273 272 272 272 273 273 274 274 275 275 274 275 275 276 276 277 278 278 277 277 277 278 278 278 278 279 279 279 279 280 280 280
273 272 272 272 272 272 272 272 272 272 272 272 272 272 273 273 273 274 274 274 274 274 275 275 275 276 277 277 276 277 277 277 278 278 278 278 278 278 278 279 279 280

ECMWFNIL_850_thetae_060.txt.gz
Theta_e
278 278 278 277 278 278 278 278 278 278 279 279 279 279 279 279 279 278 278 278 278 278 278 278 277 277 277 277 277 277 278 278 277 277 277 276 276 275 275 274 273 272
278 277 277 277 278 278 278 278 278 278 279 279 279 279 279 279 279 279 279 279 278 278 278 278 278 278 278 277 277 277 278 278 277 277 277 276 276 275 275 275 274 273
278 277 277 277 277 278 278 278 278 278 278 279 279 279 279 279 279 279 279 279 279 279 278 278 278 278 278 278 277 277 278 278 277 277 277 276 276 276 275 275 274 273
278 277 277 277 277 277 277 277 277 278 278 278 279 279 279 279 279 279 279 279 279 279 279 279 278 278 278 278 278 278 278 277 277 277 277 276 276 276 276 275 274 273
278 278 277 277 277 277 277 277 277 277 278 278 278 279 279 279 279 279 279 279 279 279 279 279 279 279 278 278 278 278 278 278 277 277 276 277 276 276 276 275 274 274
278 278 278 277 277 277 277 277 277 277 277 277 278 278 278 278 278 278 278 279 279 279 279 279 279 279 279 278 278 278 278 278 277 277 276 277 277 276 276 275 275 274
278 278 278 277 277 277 277 276 276 276 277 277 277 277 278 278 278 278 278 278 278 279 279 279 279 279 279 278 278 278 278 277 277 277 276 276 277 277 276 276 275 274
278 278 278 278 277 276 276 276 276 276 276 276 276 277 277 277 278 278 278 278 278 278 278 279 279 279 278 278 278 278 278 277 277 277 276 276 277 277 277 276 275 275
278 278 278 278 277 276 276 276 276 276 275 275 276 276 276 276 277 277 277 278 278 278 278 278 278 278 278 278 278 278 277 277 277 276 276 276 276 277 277 276 275 275
278 278 278 278 277 277 276 276 276 275 275 275 275 275 276 276 276 276 277 277 277 277 278 278 278 278 278 278 277 277 277 277 276 276 276 276 276 276 276 276 275 275
278 278 278 278 277 277 276 276 275 275 275 275 275 275 275 275 276 276 276 276 277 277 277 277 277 277 277 277 277 277 277 276 276 276 276 276 276 276 276 275 275 276
278 278 278 278 277 277 276 275 275 275 274 275 275 275 275 275 275 276 276 276 276 276 276 276 276 277 277 277 277 277 276 276 276 276 276 275 275 276 275 275 275 275
278 278 278 277 277 276 276 275 275 274 274 274 274 274 275 275 275 275 275 275 275 275 275 275 276 276 276 277 277 276 276 276 276 276 276 276 275 275 275 275 275 275
278 278 278 277 277 276 276 275 274 274 273 273 274 274 274 274 275 275 275 275 275 275 275 275 275 275 276 276 276 276 276 276 276 276 276 276 275 275 275 275 275 275
278 278 277 277 277 276 276 275 274 274 273 273 273 273 274 274 274 274 274 274 274 274 274 274 275 275 275 276 276 276 276 276 276 276 276 276 275 275 275 275 275 276
278 277 277 277 277 277 276 276 275 274 273 273 273 273 273 273 273 274 274 274 274 274 274 274 274 275 275 275 275 275 275 276 276 276 276 276 276 276 276 276 276 276
277 277 277 277 277 276 276 276 275 274 273 273 272 272 272 273 273 273 273 274 274 274 274 274 274 275 275 275 275 275 275 275 276 276 276 276 276 276 276 276 277 277
278 277 277 277 277 276 276 275 275 274 273 273 272 272 272 272 272 273 273 273 273 273 274 274 274 275 275 274 274 275 275 274 275 276 276 276 276 276 276 277 277 278
278 277 277 277 277 276 276 275 274 274 273 273 272 272 271 271 272 272 273 273 273 273 274 274 274 274 274 274 274 275 275 274 274 275 275 276 276 277 277 278 278 278
278 277 277 277 276 276 275 275 274 274 273 273 272 272 271 271 272 272 272 273 273 273 273 274 274 274 274 274 274 274 275 274 274 275 275 275 276 276 277 278 278 278
278 277 277 277 276 276 275 275 275 274 273 273 272 272 271 271 271 271 272 272 272 273 273 274 274 274 274 274 274 274 275 274 274 275 275 275 276 277 277 278 278 279
279 277 277 276 276 276 275 275 275 274 274 273 272 272 272 271 271 272 272 272 272 272 273 273 274 274 273 273 274 274 275 274 274 275 275 276 276 277 278 278 279 279
279 278 277 276 275 275 275 275 274 274 273 273 272 272 272 271 271 271 272 272 272 272 273 273 274 274 273 273 274 274 275 275 275 276 276 276 277 277 278 278 279 279
279 278 276 276 275 275 275 275 274 273 273 272 272 272 272 272 271 271 271 272 272 272 272 273 273 273 273 273 274 274 274 275 275 276 276 276 276 277 277 278 278 279
279 277 276 275 275 275 275 274 274 273 273 272 272 272 272 272 271 271 272 272 272 272 272 272 273 274 273 274 274 275 275 275 275 276 275 276 276 276 277 277 278 278
278 277 276 275 275 275 274 274 273 273 273 273 273 272 272 272 272 272 272 272 272 272 272 272 273 274 274 274 274 275 275 275 275 275 275 275 276 276 276 277 277 278

ECMWFNIL_850_thetae_066.txt.gz
Theta_e
287 287 286 286 286 285 285 285 285 284 284 283 282 281 281 281 281 280 279 279 279 279 279 278 278 278 278 278 278 277 277 277 278 277 278 278 278 278 278 278 278 278
287 287 286 285 285 285 285 285 284 284 284 283 282 281 281 281 280 280 279 278 278 278 278 278 278 278 278 278 278 277 277 277 277 277 277 278 278 278 278 278 278 278
287 287 286 285 285 285 284 284 284 283 283 283 282 281 281 280 280 279 279 278 278 278 278 278 278 278 278 278 278 277 277 277 277 277 277 277 277 277 278 278 278 278
287 286 286 285 284 284 283 283 283 283 282 283 282 281 280 280 280 279 279 278 277 277 277 277 277 277 278 278 278 277 277 277 277 277 277 277 277 277 277 277 277 277
286 285 285 285 284 283 283 282 282 282 282 282 282 281 280 280 279 279 279 278 277 277 277 277 277 277 277 277 277 277 277 277 277 277 277 277 277 277 277 277 277 277
287 285 284 284 283 282 282 282 282 281 281 281 281 280 280 279 279 279 278 278 277 276 276 276 276 277 277 277 277 277 277 277 277 277 277 277 277 277 277 277 277 277
288 286 284 284 283 282 281 281 281 281 280 280 280 280 280 279 279 278 278 278 277 276 275 275 275 276 276 276 276 276 277 277 277 277 277 277 277 277 277 277 277 277
287 286 285 284 283 282 281 281 280 280 280 280 279 279 279 279 279 278 277 277 276 276 275 275 275 275 275 275 275 276 276 276 277 277 277 277 277 277 277 277 277 277
287 286 284 283 282 282 281 281 280 280 279 279 279 279 279 278 278 278 277 276 276 275 275 274 274 274 274 274 274 275 276 276 276 277 277 276 276 276 276 276 276 276
286 285 284 282 282 281 281 281 280 279 279 279 279 278 278 278 278 278 277 276 275 275 274 274 273 273 273 273 274 275 275 276 276 276 276 276 276 276 276 276 276 276
284 284 283 282 282 281 281 280 279 279 278 278 278 278 278 278 278 278 277 276 275 275 274 273 273 273 273 273 274 274 275 275 276 276 276 276 275 275 275 276 276 276
283 283 283 282 281 280 280 279 279 278 278 277 277 278 278 278 278 278 277 276 275 274 274 273 273 272 272 273 273 273 274 275 275 275 275 275 275 275 275 275 276 276
283 283 283 282 281 280 279 279 278 278 277 277 277 277 277 277 278 278 277 276 275 274 273 273 272 272 272 272 272 273 273 274 275 275 275 275 275 275 275 275 276 276
283 282 282 282 281 280 278 278 278 277 277 276 276 276 277 277 277 278 277 276 275 274 273 272 272 272 271 272 272 273 273 274 274 274 274 274 274 274 275 275 275 276
283 282 281 281 281 280 278 278 277 277 276 276 275 275 276 276 277 277 276 276 275 274 273 272 271 271 271 272 272 272 273 273 274 274 274 273 273 274 274 274 275 276
283 282 281 280 280 280 279 277 277 276 276 275 275 275 275 276 276 277 276 276 275 274 273 272 271 271 272 272 272 272 273 273 273 273 273 273 273 273 273 274 275 276
282 281 280 280 279 279 279 277 276 276 275 275 274 274 275 275 276 276 276 276 275 274 273 272 271 272 272 271 271 271 271 272 273 273 273 273 273 273 273 274 274 275
282 281 280 279 279 279 278 277 276 275 274 274 274 274 274 275 276 276 276 275 274 274 273 272 271 272 271 271 271 270 270 270 272 272 273 273 273 272 273 273 274 275
281 280 280 279 278 278 278 277 276 275 274 274 274 274 274 274 275 276 276 275 274 274 274 273 272 272 271 270 270 270 269 269 269 270 271 272 272 272 272 273 274 275
281 280 279 278 278 277 277 277 276 275 274 274 273 273 273 274 275 275 275 275 274 274 273 273 272 272 271 270 270 269 269 269 269 269 270 270 271 271 272 273 273 274
280 279 279 278 277 276 276 276 276 275 274 273 273 273 273 273 274 275 275 275 274 273 273 272 273 272 270 270 270 269 269 269 269 269 269 269 270 270 271 272 273 274
279 279 278 277 276 276 276 276 276 275 274 273 273 273 272 273 274 275 275 274 274 273 272 272 272 272 271 270 270 269 269 268 268 269 269 269 269 269 270 271 272 274
279 278 278 277 276 275 275 275 275 275 274 273 272 272 272 272 274 274 274 274 273 273 272 272 272 272 271 271 270 269 268 268 268 269 269 269 269 269 269 270 272 274
278 277 277 276 275 275 275 275 275 274 274 273 272 272 272 272 273 274 274 273 273 273 272 272 272 272 271 271 270 269 268 268 268 268 269 269 269 269 270 271 272 274
277 276 276 276 275 274 274 274 274 274 273 273 272 272 271 272 273 273 273 273 273 272 272 272 272 272 272 271 270 270 269 268 268 268 269 269 270 270 271 271 272 274
275 274 274 274 274 273 273 274 274 273 273 272 272 271 271 272 272 273 272 272 273 273 272 272 272 272 272 271 270 270 269 268 268 268 269 269 270 271 271 271 272 273